星链-5489 (STARLINK-5489 )

导读 | 豆包AI

STARLINK-5489是美国太空探索技术公司(SpaceX)“星链”星座中的一颗卫星,于2023年3月29日发射入轨,属于星链项目第二代组网卫星,主要为全球范围提供低延迟、高速率的宽带互联网服务,尤其服务偏远地区及网络基础设施薄弱区域,进一步扩充了星链星座的部署规模与服务覆盖能力。

基本信息
目录编号:
56136
目录名称:
STARLINK-5489
国际标识:
2023-046AW
轨道中心:
EARTH
卫星名称:
星链-5489
卫星全名:
星链-5489 (STARLINK-5489 )
卫星状态:
在轨 (已飞行1128 天)
发射日期:
2023-03-29 UTC
国别 :
美国 (US)
星等 :
--
轨道信息
数据来源 国际轨道数据
星历时间: 2026-04-29T21:38:19+0800
1天前
查看轨道信息
半长轴: 6861.198km
偏心率: 0.0001305
轨道倾角: 42.999°
近地点辐角 282.715°
升交点赤经 219.451°
平近点角 77.355°
近地点: 482.165km
远地点: 483.957km
周期: 94.267分钟
每日圈数: 15.275763
详细信息
固有亮度:
5
最大亮度:
2.5
卫星平台:
Starlink v1.5
覆盖范围:
全球
运营商:
太空探索技术公司
运营商所在国:
美国
制造商(研发单位):
太空探索技术公司
制造商所在国:
美国
使用方式:
暂无
卫星简介
星链(Starlink)计划是由太空探索技术公司(SpaceX)提出的一个巨型低轨卫星互联网星座项目,计划在2019年至2024年间在太空搭建由约1.2万颗卫星组成的“星链”网络,其中1584颗将部署在地球上空550千米处的近地轨道,并从2020年开始工作。该卫星仍在工作。
2D轨道图
3D轨道图
轨道高度分析图
轨道倾角分析图
轨道综合分析图
查看轨道综合分析图